Precipitable_Water
0.63 0.62 0.62 0.61 0.60 0.58 0.57 0.56 0.56 0.56 0.56 0.56 0.55 0.55 0.55 0.54 0.53 0.52 0.50 0.49 0.47 0.47 0.46 0.45 0.45 0.44 0.43 0.42 0.41 0.42 0.42 0.34 0.27 0.28 0.33 0.29 0.38 0.53 0.52 0.55 0.59 0.62 0.62 0.69 0.89 0.92 0.90 1.06 1.10 1.22 1.26 1.35 1.46 1.52 1.75 1.76 1.93 1.75 1.40 1.32 1.18 1.28 1.25 1.38 1.29 1.38 1.44 1.26 1.30 1.36 1.44 1.39 1.25 1.38 1.41 1.44 1.34 1.35 1.30 1.26 1.33 1.18 1.12 1.13 1.14 1.14 1.15 1.17
0.60 0.61 0.62 0.62 0.63 0.63 0.61 0.61 0.59 0.59 0.58 0.58 0.58 0.58 0.57 0.58 0.57 0.56 0.54 0.52 0.50 0.48 0.47 0.46 0.45 0.44 0.43 0.41 0.41 0.42 0.39 0.33 0.27 0.27 0.25 0.30 0.47 0.47 0.49 0.51 0.52 0.58 0.62 0.66 0.81 0.89 0.94 0.97 0.96 1.03 1.09 1.16 1.57 1.43 1.74 1.61 1.87 1.48 1.38 1.36 1.14 1.32 1.38 1.57 1.55 1.59 1.41 1.36 1.42 1.45 1.49 1.44 1.31 1.37 1.33 1.23 1.21 1.28 1.18 1.14 1.10 1.12 1.15 1.15 1.13 1.12 1.13 1.17
0.60 0.60 0.60 0.60 0.59 0.61 0.62 0.62 0.62 0.61 0.61 0.60 0.60 0.60 0.59 0.58 0.58 0.59 0.58 0.56 0.53 0.50 0.48 0.46 0.45 0.45 0.43 0.42 0.39 0.40 0.38 0.28 0.34 0.24 0.22 0.32 0.41 0.45 0.42 0.43 0.47 0.54 0.60 0.59 0.82 0.99 0.98 0.95 0.87 0.87 0.98 1.14 1.43 1.41 1.59 1.53 1.63 1.58 1.41 1.22 1.22 1.46 1.53 1.55 1.57 1.55 1.61 1.52 1.45 1.43 1.48 1.45 1.40 1.44 1.43 1.22 1.19 1.25 1.17 1.05 1.13 1.09 1.00 1.01 1.06 1.10 1.11 1.18
0.59 0.59 0.60 0.59 0.59 0.59 0.59 0.60 0.60 0.61 0.61 0.61 0.61 0.60 0.60 0.59 0.58 0.59 0.59 0.58 0.56 0.52 0.50 0.47 0.45 0.45 0.43 0.40 0.41 0.41 0.37 0.32 0.23 0.35 0.59 0.53 0.44 0.40 0.39 0.39 0.42 0.50 0.61 0.69 0.97 1.05 1.01 0.95 0.84 0.88 0.95 1.08 1.40 1.47 1.38 1.52 1.40 1.52 1.46 1.28 1.34 1.54 1.45 1.55 1.59 1.62 1.60 1.58 1.49 1.48 1.52 1.42 1.46 1.41 1.41 1.21 1.14 1.15 1.15 1.20 1.07 1.03 0.97 0.97 1.04 1.08 1.13 1.17
0.58 0.58 0.57 0.58 0.57 0.58 0.57 0.58 0.59 0.59 0.60 0.61 0.60 0.60 0.59 0.58 0.58 0.58 0.59 0.59 0.57 0.54 0.51 0.48 0.46 0.45 0.43 0.43 0.38 0.41 0.34 0.16 0.53 0.64 0.66 0.51 0.44 0.39 0.38 0.37 0.38 0.47 0.55 0.73 1.06 1.07 0.93 0.85 0.81 0.85 0.91 0.98 1.26 1.38 1.45 1.55 1.53 1.47 1.37 1.43 1.48 1.56 1.41 1.60 1.63 1.66 1.61 1.64 1.52 1.50 1.41 1.33 1.53 1.43 1.42 1.35 1.13 1.09 1.16 1.17 1.18 1.08 1.02 0.98 1.01 1.07 1.14 1.18
0.58 0.58 0.57 0.56 0.57 0.56 0.56 0.56 0.56 0.58 0.59 0.60 0.60 0.59 0.58 0.58 0.57 0.58 0.57 0.57 0.57 0.56 0.52 0.50 0.49 0.45 0.44 0.41 0.39 0.35 0.23 0.19 0.66 0.72 0.84 0.70 0.53 0.44 0.38 0.36 0.35 0.46 0.50 0.81 0.97 0.92 0.83 0.80 0.79 0.78 0.83 0.96 1.16 1.17 1.41 1.49 1.57 1.22 1.34 1.42 1.51 1.52 1.39 1.63 1.64 1.65 1.67 1.60 1.51 1.45 1.53 1.55 1.44 1.38 1.49 1.54 1.37 1.33 1.39 1.24 1.15 1.14 1.07 1.04 1.09 1.10 1.09 1.15
0.59 0.59 0.58 0.58 0.57 0.57 0.55 0.55 0.55 0.55 0.56 0.58 0.59 0.59 0.57 0.57 0.58 0.57 0.56 0.57 0.57 0.57 0.55 0.51 0.50 0.48 0.43 0.41 0.34 0.33 0.20 0.36 0.48 0.84 0.69 0.54 0.50 0.40 0.38 0.33 0.35 0.43 0.53 0.70 0.88 0.84 0.75 0.76 0.75 0.78 0.80 0.95 1.09 1.20 1.33 1.46 1.51 1.38 1.21 1.33 1.31 1.47 1.33 1.54 1.63 1.68 1.63 1.60 1.51 1.66 1.70 1.50 1.41 1.26 1.54 1.48 1.44 1.52 1.48 1.30 1.17 1.16 1.16 1.07 0.99 1.05 1.06 1.11
0.60 0.59 0.59 0.58 0.58 0.58 0.57 0.56 0.55 0.54 0.54 0.56 0.57 0.58 0.57 0.57 0.56 0.56 0.56 0.56 0.57 0.57 0.56 0.53 0.50 0.49 0.46 0.32 0.27 0.25 0.20 0.17 0.47 0.64 0.62 0.55 0.46 0.40 0.35 0.28 0.35 0.40 0.51 0.58 0.83 0.76 0.74 0.70 0.67 0.80 0.81 0.86 1.07 1.22 1.37 1.26 1.38 1.33 1.26 1.25 1.21 1.21 1.39 1.51 1.51 1.57 1.63 1.67 1.69 1.65 1.51 1.44 1.45 1.37 1.51 1.43 1.39 1.36 1.46 1.31 1.14 1.15 1.09 1.03 0.96 0.98 1.02 1.06
0.59 0.58 0.58 0.58 0.58 0.58 0.58 0.56 0.56 0.54 0.54 0.54 0.55 0.56 0.57 0.57 0.55 0.55 0.56 0.57 0.57 0.57 0.56 0.55 0.51 0.48 0.48 0.30 0.19 0.23 0.39 0.60 0.68 0.60 0.62 0.44 0.41 0.34 0.26 0.27 0.36 0.39 0.47 0.68 0.83 0.76 0.70 0.61 0.66 0.75 0.76 0.82 0.96 1.03 1.20 1.16 1.16 1.29 1.34 1.33 1.26 1.08 1.25 1.52 1.49 1.56 1.63 1.69 1.68 1.49 1.47 1.48 1.48 1.52 1.42 1.42 1.41 1.37 1.41 1.27 1.11 1.09 1.03 1.00 0.98 1.00 1.00 1.03
0.58 0.58 0.58 0.58 0.58 0.58 0.57 0.57 0.55 0.54 0.53 0.54 0.54 0.54 0.55 0.56 0.55 0.55 0.56 0.57 0.58 0.57 0.55 0.53 0.52 0.48 0.37 0.29 0.28 0.18 0.54 0.69 0.67 0.56 0.44 0.42 0.32 0.23 0.24 0.32 0.38 0.43 0.51 0.65 0.78 0.70 0.59 0.60 0.65 0.76 0.82 0.78 0.74 0.80 1.16 1.19 1.16 1.38 1.37 1.31 1.14 1.09 1.13 1.45 1.42 1.53 1.72 1.70 1.72 1.48 1.43 1.46 1.56 1.42 1.22 1.50 1.45 1.37 1.29 1.22 1.11 1.03 0.98 0.96 0.95 0.97 1.02 1.04
0.58 0.59 0.58 0.59 0.58 0.58 0.57 0.57 0.55 0.54 0.53 0.53 0.53 0.53 0.53 0.55 0.56 0.56 0.56 0.57 0.57 0.56 0.52 0.51 0.53 0.44 0.29 0.33 0.24 0.33 0.77 0.63 0.57 0.48 0.42 0.30 0.26 0.20 0.26 0.40 0.42 0.48 0.61 0.70 0.68 0.62 0.60 0.62 0.67 0.73 0.70 0.63 0.72 0.80 1.07 1.27 1.31 1.25 1.30 1.21 1.14 1.10 1.17 1.24 1.48 1.53 1.62 1.62 1.80 1.65 1.45 1.49 1.53 1.46 1.26 1.39 1.45 1.34 1.20 1.14 1.05 1.01 0.97 0.94 0.94 0.95 0.98 1.02
0.59 0.59 0.60 0.59 0.59 0.58 0.58 0.58 0.56 0.53 0.52 0.52 0.53 0.51 0.52 0.54 0.56 0.56 0.57 0.57 0.55 0.54 0.52 0.50 0.47 0.45 0.35 0.28 0.28 0.48 0.78 0.68 0.64 0.51 0.34 0.30 0.26 0.28 0.39 0.47 0.47 0.57 0.65 0.65 0.57 0.56 0.56 0.59 0.62 0.60 0.56 0.67 0.62 0.77 0.87 1.22 1.24 1.19 1.17 0.99 1.04 1.08 1.16 1.43 1.45 1.53 1.53 1.44 1.77 1.69 1.43 1.38 1.37 1.23 1.43 1.49 1.40 1.31 1.18 1.05 1.04 0.99 0.96 0.94 0.93 0.92 0.96 0.98
0.60 0.59 0.59 0.59 0.58 0.58 0.57 0.57 0.56 0.53 0.51 0.51 0.51 0.51 0.52 0.53 0.54 0.55 0.58 0.57 0.55 0.53 0.51 0.46 0.47 0.46 0.37 0.25 0.28 0.64 0.74 0.76 0.66 0.51 0.38 0.28 0.30 0.35 0.51 0.53 0.52 0.69 0.70 0.56 0.45 0.49 0.53 0.57 0.57 0.53 0.56 0.58 0.61 0.64 1.04 1.18 1.11 1.14 1.10 1.01 0.97 0.95 1.20 1.38 1.53 1.51 1.47 1.53 1.77 1.64 0.95 1.13 1.26 1.38 1.54 1.60 1.38 1.31 1.13 1.01 1.01 0.98 0.99 0.96 0.95 0.92 1.01 0.97
0.61 0.61 0.60 0.59 0.58 0.57 0.56 0.57 0.55 0.53 0.50 0.50 0.51 0.51 0.52 0.51 0.53 0.56 0.54 0.51 0.52 0.49 0.46 0.47 0.49 0.46 0.39 0.35 0.59 0.54 0.77 0.68 0.67 0.56 0.39 0.34 0.30 0.33 0.50 0.66 0.63 0.63 0.63 0.52 0.49 0.46 0.46 0.52 0.52 0.53 0.59 0.57 0.61 0.80 0.84 1.00 1.12 0.95 1.02 1.02 0.88 0.83 1.06 1.30 1.37 1.46 1.37 1.66 1.71 1.64 1.00 1.11 1.32 1.41 1.53 1.58 1.40 1.26 1.12 1.04 1.01 0.99 1.02 1.00 0.96 0.92 0.99 0.89
0.63 0.62 0.61 0.59 0.58 0.57 0.56 0.55 0.55 0.52 0.50 0.50 0.51 0.51 0.51 0.49 0.53 0.53 0.52 0.49 0.47 0.48 0.45 0.48 0.49 0.43 0.30 0.52 0.60 0.71 0.70 0.71 0.52 0.60 0.59 0.47 0.37 0.41 0.47 0.61 0.58 0.59 0.58 0.53 0.49 0.45 0.43 0.47 0.48 0.45 0.46 0.61 0.65 0.64 0.68 0.79 0.90 0.95 0.87 0.79 0.87 0.80 1.10 1.30 1.38 1.38 1.25 1.50 1.65 1.47 1.10 1.13 1.31 1.46 1.58 1.63 1.44 1.30 1.14 1.12 1.06 1.01 1.04 1.03 0.98 0.94 0.98 0.90
0.63 0.63 0.61 0.61 0.59 0.57 0.55 0.54 0.54 0.52 0.49 0.50 0.50 0.51 0.48 0.51 0.51 0.49 0.49 0.50 0.48 0.47 0.48 0.39 0.36 0.34 0.52 0.54 0.65 0.73 0.53 0.45 0.43 0.59 0.70 0.59 0.54 0.47 0.48 0.48 0.56 0.57 0.55 0.48 0.47 0.43 0.40 0.42 0.38 0.40 0.44 0.54 0.55 0.60 0.63 0.67 0.75 0.87 0.84 0.80 0.77 0.79 1.03 1.09 1.28 1.37 1.42 1.43 1.52 1.39 1.10 1.21 1.30 1.47 1.59 1.67 1.56 1.31 1.18 1.15 1.11 1.03 1.07 1.03 0.99 0.98 0.98 0.94
0.63 0.63 0.63 0.62 0.61 0.59 0.55 0.54 0.53 0.50 0.50 0.50 0.50 0.50 0.50 0.50 0.51 0.50 0.50 0.50 0.47 0.45 0.42 0.53 0.61 0.54 0.37 0.59 0.73 0.53 0.45 0.44 0.60 0.58 0.50 0.62 0.53 0.45 0.49 0.47 0.47 0.49 0.50 0.47 0.44 0.43 0.38 0.32 0.34 0.36 0.42 0.44 0.54 0.59 0.55 0.56 0.63 0.74 0.83 0.81 0.83 0.75 0.89 0.94 1.22 1.38 1.39 1.32 1.21 1.36 1.24 1.26 1.35 1.38 1.52 1.61 1.49 1.39 1.24 1.18 1.15 1.09 1.08 1.06 1.00 1.02 1.00 0.94
0.64 0.64 0.64 0.64 0.62 0.59 0.57 0.53 0.53 0.50 0.50 0.50 0.51 0.45 0.45 0.47 0.49 0.45 0.43 0.47 0.50 0.42 0.47 0.53 0.59 0.49 0.33 0.52 0.43 0.44 0.46 0.52 0.57 0.59 0.51 0.61 0.50 0.45 0.43 0.40 0.40 0.43 0.43 0.40 0.41 0.32 0.35 0.25 0.26 0.24 0.31 0.38 0.44 0.49 0.46 0.47 0.58 0.69 0.75 0.76 0.80 0.80 0.88 0.94 0.97 1.19 1.24 1.31 1.19 1.25 1.27 1.31 1.35 1.38 1.49 1.58 1.58 1.39 1.34 1.27 1.24 1.15 1.09 1.07 0.99 1.04 0.98 0.94
0.64 0.65 0.65 0.64 0.64 0.61 0.56 0.54 0.51 0.51 0.50 0.51 0.48 0.54 0.57 0.57 0.49 0.55 0.50 0.47 0.35 0.29 0.33 0.26 0.31 0.30 0.31 0.48 0.57 0.49 0.47 0.63 0.58 0.55 0.49 0.51 0.63 0.51 0.40 0.41 0.40 0.37 0.32 0.33 0.34 0.29 0.31 0.22 0.22 0.19 0.21 0.28 0.36 0.41 0.44 0.56 0.64 0.74 0.83 0.84 0.82 0.80 0.83 0.91 1.06 1.22 1.22 1.16 1.11 1.17 1.15 1.24 1.31 1.38 1.51 1.57 1.57 1.52 1.40 1.47 1.34 1.28 1.15 1.09 1.02 1.06 0.97 0.96
0.65 0.64 0.65 0.64 0.63 0.61 0.57 0.53 0.52 0.50 0.51 0.47 0.51 0.58 0.62 0.59 0.48 0.56 0.55 0.50 0.34 0.43 0.51 0.46 0.27 0.47 0.41 0.46 0.48 0.53 0.70 0.67 0.51 0.44 0.59 0.57 0.58 0.45 0.36 0.35 0.34 0.35 0.31 0.28 0.33 0.29 0.30 0.16 0.15 0.14 0.19 0.26 0.33 0.41 0.45 0.55 0.65 0.79 0.87 0.84 0.82 0.83 0.94 1.03 1.10 1.16 1.28 1.17 1.13 1.17 1.22 1.22 1.32 1.35 1.41 1.57 1.58 1.54 1.44 1.42 1.42 1.34 1.23 1.17 1.03 1.05 1.02 0.98
0.65 0.65 0.64 0.63 0.63 0.60 0.56 0.53 0.51 0.50 0.52 0.48 0.48 0.52 0.50 0.40 0.31 0.37 0.52 0.42 0.44 0.45 0.45 0.49 0.32 0.49 0.48 0.54 0.59 0.64 0.54 0.50 0.55 0.46 0.58 0.63 0.57 0.40 0.34 0.32 0.29 0.25 0.29 0.33 0.33 0.33 0.28 0.17 0.14 0.16 0.18 0.27 0.32 0.40 0.47 0.51 0.57 0.66 0.79 0.84 0.79 0.78 0.79 1.04 1.01 1.20 1.26 1.08 1.10 1.22 1.17 1.14 1.29 1.39 1.44 1.51 1.52 1.42 1.44 1.46 1.56 1.43 1.31 1.26 1.11 1.07 1.05 1.05
0.66 0.65 0.64 0.62 0.61 0.59 0.55 0.52 0.52 0.49 0.50 0.49 0.43 0.42 0.57 0.44 0.42 0.51 0.45 0.34 0.43 0.31 0.44 0.45 0.38 0.42 0.48 0.54 0.63 0.60 0.48 0.42 0.44 0.48 0.59 0.46 0.50 0.30 0.36 0.29 0.27 0.22 0.27 0.32 0.34 0.27 0.22 0.18 0.16 0.18 0.21 0.26 0.33 0.38 0.46 0.49 0.50 0.59 0.74 0.81 0.79 0.80 0.84 0.86 1.14 1.17 1.19 1.09 1.03 1.17 1.08 1.10 1.21 1.37 1.47 1.46 1.45 1.51 1.50 1.51 1.53 1.50 1.41 1.36 1.22 1.14 1.13 1.08
0.66 0.65 0.64 0.63 0.60 0.58 0.54 0.52 0.50 0.50 0.45 0.42 0.42 0.51 0.51 0.44 0.45 0.53 0.44 0.39 0.37 0.41 0.33 0.35 0.34 0.46 0.46 0.48 0.47 0.46 0.33 0.36 0.39 0.46 0.53 0.47 0.50 0.41 0.41 0.28 0.27 0.24 0.25 0.28 0.28 0.25 0.20 0.20 0.19 0.21 0.25 0.25 0.28 0.34 0.41 0.47 0.55 0.57 0.66 0.75 0.81 0.87 0.79 0.73 0.93 1.12 1.17 1.03 0.99 1.10 1.06 1.12 1.30 1.35 1.44 1.51 1.50 1.49 1.54 1.60 1.54 1.59 1.53 1.44 1.35 1.21 1.17 1.11
0.65 0.64 0.65 0.62 0.61 0.60 0.54 0.51 0.51 0.47 0.40 0.39 0.42 0.55 0.54 0.47 0.44 0.49 0.39 0.33 0.36 0.35 0.27 0.29 0.30 0.43 0.46 0.40 0.41 0.34 0.32 0.39 0.46 0.47 0.55 0.46 0.42 0.49 0.44 0.31 0.30 0.24 0.24 0.25 0.29 0.27 0.22 0.25 0.23 0.21 0.25 0.24 0.25 0.32 0.35 0.42 0.45 0.55 0.58 0.67 0.77 0.79 0.71 0.64 0.81 1.01 1.06 1.06 1.08 1.10 1.02 1.06 1.23 1.17 1.24 1.45 1.54 1.46 1.46 1.51 1.59 1.54 1.67 1.63 1.60 1.41 1.29 1.16
0.65 0.63 0.63 0.63 0.59 0.66 0.63 0.58 0.44 0.40 0.45 0.49 0.49 0.53 0.48 0.48 0.47 0.46 0.35 0.37 0.30 0.31 0.28 0.25 0.30 0.36 0.46 0.42 0.39 0.28 0.32 0.34 0.43 0.57 0.51 0.45 0.50 0.46 0.46 0.41 0.34 0.24 0.25 0.25 0.29 0.28 0.27 0.28 0.25 0.20 0.23 0.24 0.26 0.38 0.43 0.44 0.44 0.52 0.62 0.70 0.75 0.80 0.69 0.66 0.67 0.82 0.88 0.86 1.01 0.93 0.76 0.83 1.09 1.18 1.16 1.31 1.42 1.37 1.44 1.42 1.49 1.58 1.60 1.63 1.56 1.53 1.44 1.29
0.64 0.62 0.61 0.62 0.61 0.59 0.68 0.52 0.45 0.55 0.56 0.50 0.54 0.50 0.54 0.49 0.55 0.43 0.36 0.25 0.27 0.28 0.23 0.21 0.26 0.33 0.42 0.34 0.27 0.29 0.31 0.28 0.36 0.56 0.50 0.39 0.56 0.47 0.45 0.41 0.35 0.30 0.27 0.28 0.26 0.30 0.30 0.31 0.25 0.19 0.21 0.24 0.27 0.38 0.47 0.52 0.49 0.49 0.57 0.73 0.76 0.77 0.73 0.67 0.64 0.68 0.68 0.71 0.89 0.96 0.70 0.69 1.00 1.04 1.15 1.23 1.28 1.30 1.47 1.46 1.45 1.48 1.46 1.57 1.58 1.60 1.55 1.38
0.64 0.62 0.61 0.60 0.61 0.60 0.45 0.47 0.50 0.50 0.51 0.53 0.55 0.56 0.51 0.51 0.60 0.48 0.25 0.21 0.27 0.27 0.21 0.33 0.21 0.36 0.38 0.34 0.28 0.31 0.18 0.24 0.34 0.52 0.43 0.43 0.46 0.50 0.35 0.34 0.34 0.39 0.36 0.34 0.29 0.25 0.30 0.30 0.25 0.21 0.22 0.25 0.32 0.47 0.59 0.56 0.50 0.48 0.63 0.68 0.72 0.74 0.73 0.72 0.61 0.59 0.65 0.70 0.89 0.91 0.81 0.71 0.78 0.97 1.12 1.26 1.21 1.26 1.33 1.39 1.46 1.54 1.49 1.47 1.57 1.57 1.60 1.54
0.64 0.62 0.60 0.59 0.59 0.61 0.47 0.43 0.46 0.56 0.55 0.56 0.56 0.55 0.56 0.57 0.45 0.39 0.35 0.21 0.22 0.33 0.24 0.25 0.23 0.37 0.32 0.29 0.29 0.21 0.27 0.34 0.29 0.39 0.39 0.39 0.46 0.40 0.32 0.30 0.32 0.34 0.39 0.34 0.23 0.29 0.23 0.30 0.29 0.35 0.32 0.43 0.44 0.51 0.55 0.55 0.47 0.50 0.55 0.58 0.62 0.69 0.72 0.72 0.64 0.59 0.60 0.61 0.60 0.74 0.85 0.71 0.74 1.00 1.18 1.26 1.12 1.20 1.26 1.27 1.29 1.43 1.50 1.55 1.57 1.59 1.61 1.62
0.64 0.63 0.60 0.58 0.57 0.67 0.67 0.54 0.46 0.48 0.55 0.53 0.54 0.48 0.55 0.58 0.38 0.35 0.35 0.23 0.30 0.29 0.44 0.27 0.32 0.30 0.26 0.24 0.22 0.24 0.29 0.33 0.28 0.33 0.33 0.38 0.41 0.34 0.31 0.34 0.36 0.36 0.42 0.36 0.29 0.29 0.28 0.36 0.39 0.45 0.46 0.45 0.45 0.44 0.45 0.43 0.40 0.45 0.55 0.55 0.60 0.66 0.72 0.69 0.65 0.59 0.60 0.55 0.54 0.60 0.75 0.67 0.69 0.91 1.04 1.20 1.11 1.09 1.20 1.29 1.34 1.43 1.46 1.51 1.53 1.62 1.66 1.64
0.64 0.62 0.61 0.58 0.54 0.63 0.66 0.66 0.60 0.50 0.53 0.52 0.52 0.57 0.46 0.39 0.36 0.27 0.28 0.23 0.35 0.27 0.33 0.33 0.28 0.26 0.25 0.20 0.22 0.22 0.27 0.29 0.30 0.33 0.33 0.29 0.33 0.36 0.36 0.38 0.35 0.35 0.37 0.36 0.34 0.35 0.33 0.47 0.59 0.47 0.47 0.51 0.47 0.42 0.36 0.39 0.42 0.46 0.48 0.53 0.55 0.59 0.62 0.66 0.67 0.63 0.60 0.51 0.53 0.58 0.64 0.69 0.59 0.77 0.99 0.99 1.00 1.12 1.23 1.26 1.34 1.39 1.42 1.53 1.62 1.58 1.63 1.68
0.62 0.62 0.60 0.60 0.46 0.51 0.52 0.47 0.63 0.65 0.64 0.55 0.53 0.47 0.45 0.39 0.36 0.29 0.21 0.26 0.33 0.31 0.32 0.29 0.25 0.27 0.22 0.20 0.18 0.23 0.28 0.32 0.30 0.30 0.28 0.25 0.25 0.32 0.35 0.34 0.39 0.33 0.35 0.37 0.35 0.38 0.43 0.43 0.47 0.54 0.54 0.50 0.47 0.38 0.38 0.45 0.42 0.43 0.44 0.48 0.51 0.54 0.59 0.59 0.61 0.65 0.52 0.49 0.56 0.61 0.58 0.73 0.53 0.73 0.98 1.08 1.14 1.23 1.23 1.20 1.21 1.29 1.32 1.39 1.46 1.56 1.62 1.71
0.60 0.59 0.60 0.57 0.56 0.59 0.46 0.45 0.55 0.55 0.53 0.56 0.56 0.50 0.46 0.34 0.38 0.31 0.33 0.36 0.23 0.29 0.27 0.25 0.26 0.25 0.22 0.23 0.22 0.19 0.26 0.30 0.31 0.28 0.23 0.21 0.22 0.25 0.28 0.30 0.32 0.26 0.27 0.31 0.32 0.35 0.35 0.43 0.46 0.49 0.56 0.46 0.41 0.38 0.42 0.49 0.43 0.40 0.44 0.45 0.44 0.44 0.46 0.42 0.47 0.44 0.46 0.47 0.56 0.61 0.58 0.64 0.65 0.79 0.97 1.03 1.20 1.28 1.33 1.36 1.27 1.32 1.37 1.38 1.45 1.54 1.59 1.65
0.58 0.58 0.59 0.57 0.58 0.52 0.54 0.57 0.54 0.53 0.55 0.56 0.55 0.53 0.48 0.36 0.23 0.28 0.28 0.26 0.23 0.28 0.26 0.26 0.25 0.23 0.24 0.23 0.24 0.24 0.27 0.28 0.29 0.27 0.26 0.25 0.24 0.26 0.30 0.31 0.32 0.34 0.29 0.30 0.32 0.30 0.36 0.46 0.47 0.46 0.46 0.47 0.45 0.36 0.42 0.37 0.37 0.39 0.39 0.38 0.36 0.37 0.36 0.34 0.39 0.44 0.44 0.49 0.59 0.58 0.59 0.63 0.76 0.87 0.99 1.00 1.14 1.31 1.39 1.45 1.47 1.42 1.39 1.41 1.48 1.55 1.55 1.57
0.56 0.59 0.53 0.57 0.58 0.55 0.52 0.56 0.60 0.58 0.54 0.55 0.51 0.51 0.48 0.34 0.29 0.30 0.29 0.25 0.24 0.29 0.26 0.23 0.24 0.23 0.23 0.22 0.24 0.26 0.24 0.29 0.26 0.29 0.27 0.25 0.24 0.20 0.24 0.30 0.32 0.31 0.29 0.35 0.31 0.32 0.27 0.29 0.37 0.43 0.35 0.49 0.41 0.40 0.45 0.41 0.37 0.38 0.40 0.37 0.37 0.39 0.36 0.32 0.35 0.34 0.37 0.42 0.47 0.55 0.51 0.61 0.63 0.74 1.03 1.12 1.18 1.24 1.29 1.33 1.33 1.39 1.39 1.40 1.47 1.57 1.58 1.54
0.55 0.58 0.59 0.57 0.60 0.61 0.61 0.64 0.57 0.57 0.58 0.53 0.53 0.50 0.35 0.28 0.26 0.25 0.24 0.26 0.27 0.25 0.25 0.27 0.22 0.21 0.23 0.24 0.28 0.29 0.30 0.27 0.28 0.29 0.27 0.26 0.23 0.26 0.25 0.28 0.31 0.36 0.33 0.30 0.30 0.32 0.28 0.26 0.35 0.42 0.42 0.47 0.40 0.46 0.49 0.37 0.34 0.38 0.40 0.42 0.38 0.37 0.40 0.33 0.36 0.36 0.38 0.38 0.41 0.47 0.50 0.75 0.73 1.03 1.10 1.12 1.19 1.19 1.21 1.25 1.33 1.39 1.39 1.33 1.36 1.46 1.54 1.53
0.52 0.62 0.74 0.54 0.54 0.61 0.72 0.62 0.60 0.56 0.52 0.51 0.48 0.39 0.34 0.37 0.29 0.29 0.29 0.28 0.24 0.24 0.24 0.23 0.23 0.21 0.21 0.23 0.27 0.29 0.30 0.28 0.28 0.29 0.28 0.29 0.30 0.28 0.31 0.32 0.32 0.37 0.34 0.29 0.35 0.26 0.27 0.25 0.31 0.34 0.32 0.34 0.41 0.47 0.42 0.36 0.24 0.32 0.35 0.30 0.31 0.35 0.34 0.32 0.36 0.38 0.38 0.37 0.36 0.62 0.64 0.77 0.89 0.92 0.97 1.03 1.07 1.10 1.18 1.22 1.22 1.19 1.24 1.30 1.30 1.36 1.45 1.49
0.46 0.54 0.65 0.62 0.47 0.44 0.50 0.51 0.61 0.57 0.51 0.47 0.45 0.33 0.34 0.32 0.32 0.32 0.29 0.28 0.29 0.28 0.23 0.21 0.21 0.21 0.23 0.23 0.28 0.26 0.29 0.32 0.29 0.27 0.27 0.30 0.28 0.33 0.31 0.34 0.36 0.35 0.35 0.34 0.29 0.33 0.26 0.25 0.29 0.27 0.26 0.32 0.41 0.45 0.37 0.34 0.35 0.30 0.24 0.24 0.28 0.32 0.31 0.29 0.29 0.30 0.29 0.27 0.40 0.45 0.50 0.61 0.66 0.60 0.96 0.99 1.03 1.09 1.12 1.11 1.13 1.22 1.25 1.20 1.18 1.28 1.37 1.46
0.50 0.53 0.55 0.44 0.42 0.43 0.48 0.56 0.56 0.57 0.54 0.48 0.38 0.30 0.32 0.29 0.28 0.28 0.27 0.30 0.28 0.27 0.22 0.22 0.22 0.24 0.21 0.27 0.28 0.28 0.30 0.27 0.26 0.27 0.25 0.29 0.27 0.35 0.31 0.31 0.35 0.37 0.35 0.36 0.31 0.30 0.30 0.25 0.27 0.28 0.28 0.29 0.31 0.32 0.29 0.31 0.35 0.32 0.30 0.36 0.23 0.23 0.21 0.28 0.28 0.25 0.23 0.22 0.31 0.46 0.50 0.54 0.60 0.63 0.82 0.85 0.91 1.00 1.06 1.11 1.09 1.07 1.12 1.15 1.16 1.25 1.36 1.45
0.56 0.59 0.57 0.54 0.51 0.42 0.44 0.50 0.51 0.54 0.53 0.40 0.36 0.33 0.22 0.28 0.27 0.26 0.26 0.30 0.31 0.30 0.29 0.26 0.26 0.25 0.27 0.26 0.26 0.27 0.27 0.21 0.27 0.25 0.26 0.29 0.27 0.33 0.33 0.34 0.36 0.39 0.37 0.35 0.33 0.33 0.33 0.26 0.26 0.30 0.27 0.28 0.27 0.24 0.20 0.26 0.31 0.32 0.33 0.28 0.28 0.29 0.25 0.22 0.26 0.33 0.31 0.23 0.23 0.50 0.46 0.50 0.68 0.71 0.83 0.86 0.94 0.99 1.01 1.07 1.06 1.12 1.08 1.09 1.12 1.16 1.29 1.38
0.55 0.58 0.49 0.51 0.46 0.38 0.46 0.51 0.45 0.47 0.48 0.37 0.36 0.31 0.31 0.30 0.27 0.27 0.28 0.32 0.30 0.34 0.33 0.32 0.32 0.27 0.30 0.30 0.28 0.26 0.23 0.22 0.23 0.23 0.27 0.30 0.31 0.36 0.32 0.32 0.34 0.36 0.37 0.36 0.33 0.33 0.29 0.33 0.24 0.26 0.29 0.27 0.20 0.20 0.17 0.20 0.23 0.27 0.27 0.28 0.27 0.28 0.33 0.29 0.30 0.29 0.29 0.30 0.24 0.42 0.41 0.56 0.77 0.96 0.89 0.90 0.94 0.98 0.99 1.00 1.06 1.09 1.11 1.10 1.12 1.15 1.19 1.27
0.62 0.56 0.44 0.52 0.43 0.39 0.46 0.47 0.44 0.38 0.37 0.32 0.33 0.31 0.31 0.30 0.31 0.29 0.28 0.29 0.31 0.32 0.34 0.37 0.31 0.30 0.31 0.28 0.28 0.29 0.24 0.23 0.26 0.24 0.29 0.32 0.32 0.30 0.31 0.29 0.32 0.35 0.39 0.34 0.33 0.34 0.30 0.28 0.28 0.27 0.23 0.21 0.21 0.21 0.21 0.24 0.27 0.28 0.27 0.27 0.28 0.26 0.27 0.22 0.22 0.30 0.32 0.30 0.29 0.40 0.45 0.60 0.81 1.02 0.98 0.95 0.97 0.98 1.02 1.05 1.01 1.05 1.06 1.11 1.13 1.16 1.16 1.22
0.48 0.45 0.37 0.45 0.36 0.42 0.44 0.42 0.34 0.39 0.35 0.34 0.29 0.31 0.30 0.29 0.32 0.30 0.32 0.30 0.33 0.32 0.33 0.37 0.35 0.33 0.33 0.35 0.29 0.28 0.24 0.27 0.29 0.30 0.33 0.34 0.36 0.34 0.29 0.31 0.32 0.35 0.36 0.31 0.33 0.34 0.33 0.32 0.31 0.26 0.25 0.23 0.25 0.25 0.29 0.29 0.27 0.30 0.29 0.28 0.31 0.31 0.29 0.27 0.22 0.25 0.30 0.35 0.47 0.52 0.45 0.59 0.88 0.94 0.98 0.96 0.97 0.96 1.00 1.06 1.03 1.00 1.04 1.05 1.11 1.14 1.16 1.19
0.55 0.35 0.38 0.37 0.35 0.43 0.43 0.34 0.29 0.31 0.31 0.28 0.34 0.32 0.33 0.33 0.32 0.29 0.32 0.31 0.36 0.34 0.35 0.36 0.36 0.36 0.37 0.35 0.32 0.30 0.31 0.29 0.36 0.33 0.36 0.34 0.35 0.32 0.33 0.32 0.32 0.33 0.35 0.37 0.34 0.31 0.33 0.32 0.32 0.28 0.27 0.29 0.29 0.29 0.27 0.27 0.25 0.24 0.25 0.30 0.30 0.26 0.26 0.28 0.28 0.36 0.34 0.33 0.39 0.41 0.45 0.59 0.84 0.95 0.92 0.96 0.97 0.97 0.98 1.01 0.98 0.99 1.01 1.04 0.98 1.07 1.11 1.13
0.51 0.37 0.34 0.31 0.42 0.42 0.38 0.32 0.29 0.29 0.27 0.28 0.32 0.31 0.31 0.32 0.33 0.30 0.33 0.32 0.34 0.35 0.36 0.35 0.37 0.40 0.37 0.38 0.35 0.34 0.35 0.33 0.38 0.36 0.35 0.37 0.32 0.32 0.33 0.33 0.33 0.29 0.31 0.31 0.32 0.28 0.22 0.29 0.32 0.30 0.26 0.24 0.23 0.23 0.23 0.25 0.24 0.23 0.23 0.26 0.29 0.31 0.33 0.36 0.36 0.35 0.30 0.31 0.36 0.38 0.37 0.53 0.78 0.90 0.91 0.91 0.91 0.90 0.92 0.92 0.94 0.94 0.96 0.98 0.98 1.02 1.07 1.11
0.50 0.41 0.39 0.34 0.34 0.35 0.32 0.32 0.33 0.28 0.26 0.28 0.29 0.27 0.29 0.29 0.31 0.32 0.32 0.31 0.33 0.36 0.35 0.35 0.36 0.37 0.37 0.38 0.39 0.39 0.37 0.40 0.36 0.39 0.38 0.35 0.30 0.31 0.30 0.31 0.31 0.30 0.34 0.35 0.36 0.32 0.30 0.35 0.30 0.26 0.23 0.20 0.18 0.18 0.17 0.19 0.21 0.26 0.26 0.27 0.30 0.29 0.31 0.30 0.27 0.33 0.29 0.35 0.40 0.41 0.52 0.69 0.78 0.85 0.84 0.84 0.85 0.85 0.90 0.94 0.93 0.96 0.95 0.93 0.95 1.00 1.02 1.06
0.46 0.45 0.43 0.32 0.30 0.33 0.29 0.27 0.32 0.29 0.26 0.27 0.25 0.20 0.24 0.24 0.26 0.30 0.31 0.31 0.31 0.32 0.36 0.35 0.36 0.35 0.35 0.34 0.34 0.34 0.35 0.39 0.40 0.37 0.34 0.33 0.30 0.29 0.30 0.29 0.29 0.29 0.32 0.36 0.34 0.28 0.32 0.34 0.38 0.34 0.35 0.35 0.36 0.33 0.30 0.25 0.24 0.22 0.25 0.24 0.25 0.28 0.30 0.31 0.32 0.31 0.33 0.42 0.46 0.55 0.55 0.66 0.73 0.76 0.76 0.81 0.84 0.84 0.85 0.89 0.88 0.89 0.90 0.90 0.92 0.95 0.99 1.04
0.51 0.38 0.37 0.42 0.35 0.28 0.26 0.30 0.30 0.30 0.35 0.31 0.33 0.27 0.27 0.22 0.23 0.23 0.24 0.27 0.29 0.30 0.30 0.32 0.33 0.32 0.34 0.35 0.35 0.36 0.38 0.35 0.39 0.38 0.37 0.34 0.33 0.30 0.31 0.29 0.28 0.28 0.30 0.31 0.29 0.27 0.30 0.30 0.31 0.36 0.39 0.37 0.37 0.33 0.31 0.29 0.26 0.21 0.21 0.21 0.23 0.26 0.28 0.29 0.28 0.31 0.39 0.35 0.39 0.56 0.60 0.55 0.64 0.74 0.78 0.80 0.85 0.85 0.86 0.85 0.86 0.87 0.85 0.83 0.86 0.89 0.92 0.96
0.36 0.31 0.35 0.41 0.39 0.34 0.37 0.23 0.33 0.25 0.22 0.26 0.30 0.27 0.27 0.26 0.25 0.27 0.24 0.21 0.27 0.20 0.31 0.34 0.31 0.35 0.37 0.39 0.38 0.35 0.36 0.40 0.36 0.36 0.40 0.37 0.31 0.30 0.30 0.30 0.30 0.29 0.29 0.30 0.29 0.27 0.29 0.27 0.27 0.26 0.31 0.36 0.36 0.33 0.31 0.28 0.28 0.26 0.26 0.25 0.23 0.22 0.25 0.26 0.28 0.33 0.34 0.34 0.42 0.57 0.63 0.60 0.64 0.72 0.79 0.85 0.85 0.84 0.84 0.84 0.87 0.87 0.86 0.85 0.82 0.82 0.84 0.87
0.44 0.31 0.25 0.21 0.32 0.30 0.22 0.20 0.25 0.25 0.25 0.26 0.20 0.28 0.22 0.24 0.23 0.22 0.26 0.27 0.25 0.26 0.28 0.30 0.28 0.31 0.35 0.37 0.40 0.42 0.40 0.34 0.35 0.40 0.42 0.35 0.36 0.31 0.31 0.34 0.33 0.31 0.31 0.31 0.29 0.30 0.27 0.22 0.34 0.28 0.27 0.27 0.31 0.33 0.33 0.29 0.28 0.27 0.26 0.24 0.24 0.21 0.21 0.24 0.27 0.31 0.33 0.44 0.49 0.56 0.62 0.65 0.73 0.76 0.80 0.84 0.89 0.87 0.86 0.87 0.86 0.86 0.83 0.82 0.82 0.79 0.81 0.84
0.41 0.44 0.37 0.31 0.33 0.29 0.24 0.30 0.27 0.29 0.20 0.20 0.29 0.20 0.25 0.23 0.22 0.24 0.21 0.28 0.25 0.21 0.27 0.26 0.28 0.27 0.28 0.30 0.38 0.42 0.42 0.43 0.45 0.41 0.43 0.41 0.36 0.34 0.41 0.40 0.36 0.33 0.31 0.31 0.29 0.33 0.22 0.30 0.33 0.32 0.26 0.25 0.26 0.28 0.30 0.30 0.27 0.26 0.26 0.24 0.23 0.22 0.22 0.24 0.28 0.30 0.33 0.48 0.51 0.58 0.57 0.61 0.77 0.83 0.83 0.86 0.88 0.88 0.87 0.84 0.83 0.83 0.82 0.81 0.78 0.79 0.81 0.82
0.56 0.45 0.45 0.46 0.42 0.25 0.28 0.26 0.35 0.31 0.28 0.32 0.31 0.19 0.29 0.20 0.23 0.23 0.22 0.29 0.28 0.23 0.27 0.25 0.26 0.30 0.35 0.36 0.36 0.36 0.38 0.42 0.43 0.46 0.45 0.36 0.36 0.41 0.38 0.42 0.41 0.35 0.34 0.29 0.29 0.33 0.26 0.28 0.33 0.32 0.26 0.22 0.23 0.23 0.25 0.26 0.25 0.25 0.24 0.23 0.22 0.20 0.19 0.22 0.22 0.27 0.30 0.35 0.46 0.56 0.51 0.54 0.70 0.81 0.83 0.84 0.82 0.80 0.80 0.82 0.83 0.82 0.82 0.81 0.78 0.75 0.79 0.81
0.55 0.57 0.54 0.46 0.40 0.23 0.28 0.16 0.25 0.35 0.35 0.36 0.27 0.25 0.30 0.23 0.21 0.28 0.25 0.21 0.25 0.28 0.29 0.31 0.31 0.29 0.30 0.34 0.32 0.33 0.35 0.36 0.36 0.38 0.37 0.36 0.37 0.35 0.38 0.35 0.33 0.36 0.35 0.35 0.36 0.31 0.27 0.25 0.28 0.26 0.21 0.20 0.23 0.24 0.22 0.20 0.20 0.18 0.18 0.19 0.21 0.21 0.20 0.21 0.22 0.26 0.28 0.30 0.34 0.41 0.52 0.65 0.68 0.71 0.68 0.72 0.80 0.77 0.81 0.79 0.80 0.82 0.81 0.80 0.77 0.78 0.79 0.81
Wind_Speed
16 16 15 15 15 14 14 14 14 14 14 13 13 13 13 14 14 14 14 14 14 14 14 14 15 14 14 14 14 14 14 14 15 16 17 17 16 16 16 16 18 18 18 18 17 17 16 15 14 13 11 10 8 6 5 4 3 2 1 0 3 5 6 8 9 10 11 13 13 12 11 11 12 11 12 11 11 12 11 11 11 14 15 16 18 20 20 19
16 16 16 16 16 16 16 15 15 15 15 15 14 14 14 14 14 14 14 14 14 14 14 15 15 15 14 14 15 14 14 15 16 18 19 18 17 17 17 17 18 18 19 19 19 18 17 15 14 13 11 10 9 7 6 4 3 1 1 1 3 5 7 7 10 11 12 13 13 12 10 11 13 12 12 12 12 12 11 12 14 17 17 18 19 19 19 19
17 17 17 17 17 17 17 17 16 16 16 16 15 15 15 15 15 15 15 15 15 15 15 15 15 15 15 15 15 15 15 16 17 18 18 18 18 17 17 18 19 19 20 20 19 19 17 15 14 14 12 10 9 8 5 4 3 1 1 2 3 6 7 8 10 11 11 13 13 11 10 11 12 12 11 12 13 12 11 13 15 17 18 19 20 19 19 18
17 17 17 17 17 17 17 17 17 17 17 17 16 16 16 16 16 16 16 15 15 15 15 15 15 15 15 15 15 14 15 16 16 15 14 16 18 18 18 18 19 21 21 20 19 18 17 16 15 14 12 11 10 8 5 4 4 2 2 2 4 7 7 8 9 10 12 12 12 11 11 12 12 10 10 12 12 11 11 14 16 17 19 20 20 19 18 18
18 18 18 18 18 18 18 18 18 18 18 17 17 17 17 17 17 17 17 16 16 15 16 16 16 15 15 15 15 15 15 14 14 14 13 14 16 17 18 19 20 21 22 21 20 19 18 17 15 15 13 12 11 8 6 6 5 4 3 3 6 7 6 8 10 10 12 12 11 11 11 11 12 10 9 10 10 10 12 14 16 17 18 19 19 19 18 17
18 19 18 18 18 18 18 18 18 18 18 18 18 18 18 18 18 18 17 17 16 16 16 16 16 16 16 15 15 16 16 14 12 14 15 15 16 17 18 19 20 21 22 22 20 19 19 18 16 16 14 13 12 9 8 8 7 5 4 4 7 8 6 8 10 10 11 12 12 11 11 11 12 11 11 9 7 10 13 15 17 17 18 19 18 18 18 17
19 19 19 19 19 19 19 19 18 18 18 18 18 18 18 18 18 18 18 18 17 17 16 16 16 16 16 16 16 16 18 18 15 15 15 15 16 18 18 19 20 21 22 22 22 20 19 18 18 17 15 13 12 10 10 9 9 6 4 4 7 9 8 9 10 10 11 12 12 11 10 10 11 12 13 11 8 10 14 15 17 17 18 18 18 18 18 17
20 20 20 20 20 20 20 20 19 19 18 18 18 18 18 18 18 18 19 19 18 18 17 17 17 16 16 16 16 17 19 19 17 16 15 15 17 18 19 20 20 21 22 23 22 21 20 19 19 17 16 14 11 11 11 10 10 8 5 3 4 7 9 11 10 11 13 12 11 12 10 9 9 11 13 11 9 12 15 16 17 17 18 17 17 17 17 17
20 20 20 20 20 20 20 20 20 20 19 18 18 18 18 18 18 18 19 19 19 19 18 18 17 17 16 16 16 17 17 16 16 18 16 16 18 19 20 20 21 21 21 22 23 21 20 19 19 18 17 14 12 11 12 11 10 10 8 7 5 5 9 12 11 11 13 13 12 13 11 10 9 10 11 10 10 14 16 16 17 18 18 17 17 17 16 16
20 20 20 21 21 21 21 21 21 20 19 19 18 18 18 18 18 18 19 19 19 19 19 18 18 17 17 17 17 16 15 15 16 18 17 17 18 20 21 21 22 22 20 21 22 22 21 19 19 19 17 15 12 11 13 12 10 12 11 10 7 4 8 12 11 11 11 11 13 13 11 11 10 9 10 10 10 15 16 17 18 17 17 17 17 16 16 16
20 21 21 21 21 21 21 21 21 20 20 19 18 18 17 17 18 18 19 19 19 19 19 19 18 18 18 17 18 16 14 15 16 16 18 18 19 21 21 21 22 22 20 21 22 22 22 20 19 18 16 14 13 12 13 13 11 12 12 10 9 7 6 8 10 11 8 9 13 14 12 12 10 9 11 12 12 16 17 17 18 17 17 17 17 16 15 15
21 21 21 21 22 21 21 21 21 20 20 19 19 18 17 17 18 18 18 19 19 19 19 19 18 18 18 18 20 18 14 15 16 16 18 18 19 21 21 21 22 22 21 20 21 21 22 21 20 19 16 14 13 12 12 14 11 12 12 10 11 9 6 8 10 10 7 8 13 14 12 12 11 11 12 12 13 16 17 17 18 17 16 16 16 15 15 15
21 21 22 22 22 22 21 21 20 20 19 19 19 18 17 17 17 18 18 18 18 19 19 19 19 18 18 18 21 20 16 16 17 16 18 19 20 21 21 22 22 22 21 20 20 21 22 21 20 20 18 16 14 10 11 14 13 12 12 11 11 10 8 8 9 8 6 8 13 12 10 11 12 12 13 13 15 17 17 17 17 16 16 16 16 15 15 15
21 22 22 22 22 22 22 21 20 19 19 18 18 17 17 17 17 17 17 17 18 18 19 19 19 18 19 18 18 18 17 16 17 17 18 20 20 21 22 22 23 22 21 20 19 20 22 20 20 21 19 19 17 12 12 14 14 13 12 12 11 10 9 8 8 8 7 9 12 10 9 12 13 12 12 13 15 17 17 17 17 16 16 16 15 15 15 15
21 22 22 22 22 22 21 21 20 19 18 18 17 16 16 16 16 15 15 16 17 18 19 19 19 19 19 20 18 18 18 18 18 18 18 20 21 21 22 23 23 23 21 20 19 20 21 20 20 21 19 20 19 14 14 14 14 14 13 13 12 11 10 9 9 9 8 9 11 10 9 12 13 13 14 13 14 17 17 16 17 16 16 16 15 15 14 15
22 22 22 22 22 22 21 20 19 18 18 17 16 16 15 15 14 14 14 15 16 17 18 19 19 20 19 18 17 18 19 20 19 19 19 20 20 21 22 23 23 23 21 20 19 18 20 20 20 20 19 19 18 15 14 15 15 15 14 13 12 11 11 9 8 9 9 10 11 10 9 12 13 14 16 14 13 16 16 16 17 17 17 16 15 15 15 14
22 22 22 23 22 22 21 20 19 18 17 16 16 15 14 13 13 13 14 15 15 16 18 19 19 20 20 18 17 19 20 20 20 19 19 19 20 20 22 22 23 22 21 21 20 18 20 21 20 20 20 19 18 17 16 16 16 15 15 14 11 11 12 10 9 9 10 9 10 10 10 11 13 14 15 13 12 13 15 17 17 16 17 16 15 15 15 15
22 22 23 22 22 22 21 19 18 17 16 16 15 14 13 13 13 13 13 14 15 16 17 19 19 19 19 20 20 20 20 20 20 20 20 20 19 20 21 22 23 22 22 22 21 20 20 21 21 20 20 20 20 19 18 16 15 15 15 13 12 12 12 11 10 10 11 10 10 10 10 11 13 15 15 13 12 11 13 14 16 17 17 16 16 15 15 15
23 23 22 22 22 21 20 19 17 16 15 15 14 13 12 12 12 13 14 15 15 15 14 16 20 17 15 18 21 20 20 20 20 20 20 20 19 20 22 22 22 23 22 21 21 21 20 20 22 22 21 22 21 21 19 17 15 14 14 13 12 10 9 11 11 11 12 10 9 9 10 11 14 15 15 15 13 12 12 11 14 17 17 16 16 15 15 15
23 23 22 22 21 20 19 17 16 15 14 13 12 12 11 11 12 12 14 16 18 17 14 15 21 19 13 15 18 19 20 20 19 20 21 21 20 20 22 22 22 23 23 21 21 21 21 20 22 23 23 23 22 22 21 19 16 13 12 13 13 10 9 11 12 11 11 10 8 9 10 11 13 14 15 15 14 13 13 12 12 16 17 16 16 16 16 15
23 22 22 21 20 19 18 16 15 14 13 12 11 12 11 11 11 11 12 16 19 19 17 16 20 20 15 15 18 18 18 19 20 20 21 21 21 21 21 22 22 23 23 23 21 21 22 22 23 24 24 23 22 22 22 21 19 15 13 13 14 12 10 11 12 12 12 10 8 9 10 11 12 13 14 14 14 14 14 14 13 14 16 16 16 17 16 15
22 21 21 20 19 18 16 14 13 12 12 11 11 12 11 11 11 12 12 14 17 19 19 17 18 19 16 15 18 18 18 20 21 21 21 21 22 21 21 22 22 22 23 24 22 21 22 23 23 23 24 23 21 22 23 21 20 16 14 14 14 13 10 9 12 13 12 10 9 10 9 10 11 12 14 14 15 14 15 16 14 13 15 16 16 17 17 16
21 21 21 19 18 17 15 13 12 11 10 9 10 12 11 11 11 12 12 13 15 18 19 18 18 19 18 16 16 18 19 20 20 22 22 22 23 22 21 22 22 22 23 25 23 22 22 22 23 23 22 24 23 22 22 21 19 18 16 16 15 14 12 10 13 15 13 10 11 11 8 8 11 11 13 15 15 14 15 17 15 13 14 14 15 16 17 17
21 20 20 18 17 15 14 12 11 10 9 9 11 11 10 10 10 11 12 13 14 15 17 18 19 20 21 18 16 19 20 19 20 21 22 23 24 22 22 22 22 22 23 25 25 23 22 21 23 23 22 24 24 22 22 21 20 19 18 16 15 16 14 11 14 16 13 11 13 13 8 7 10 12 13 15 15 14 14 15 15 15 13 12 13 14 16 17
20 19 19 17 16 15 13 12 10 9 8 9 10 9 9 8 9 10 11 12 13 14 15 17 18 18 20 19 17 19 20 19 20 21 22 24 24 22 21 21 22 22 22 25 25 23 22 21 22 24 23 24 24 22 22 21 20 19 18 16 15 17 15 11 14 15 12 11 14 14 9 7 10 12 13 14 15 15 14 15 15 15 14 13 13 13 15 16
19 18 18 17 16 15 13 11 9 8 8 8 7 7 8 7 7 8 9 11 12 12 13 16 17 16 18 18 17 19 20 20 21 21 22 24 24 22 20 20 21 22 22 23 23 22 21 21 22 23 23 24 24 22 21 21 20 18 18 17 15 17 17 13 13 15 13 12 15 15 11 9 11 13 14 15 16 16 15 15 15 15 15 15 14 14 15 16
18 17 17 16 15 14 12 11 9 8 8 7 7 8 8 6 6 7 8 9 11 11 11 15 16 15 17 18 19 18 16 18 20 21 22 24 24 22 21 21 21 22 21 21 22 21 22 23 22 23 24 24 24 22 21 21 21 18 18 19 17 17 18 15 13 14 13 12 15 16 13 10 11 12 13 14 15 14 15 14 13 15 16 16 15 15 15 15
18 17 17 16 15 13 11 11 10 9 8 8 8 8 6 5 5 6 6 6 8 9 10 12 14 14 15 18 21 17 13 17 19 19 21 24 24 22 21 20 21 23 21 21 21 21 22 24 23 22 22 23 24 23 21 20 21 20 19 19 19 18 18 16 14 14 13 12 15 17 15 11 11 12 10 12 13 12 14 15 14 15 16 16 15 15 16 15
17 17 16 16 14 12 10 9 9 8 8 8 7 6 4 3 4 5 5 4 5 8 9 10 12 14 14 18 22 19 16 17 18 20 21 23 24 23 21 19 21 23 22 22 22 20 21 22 23 23 22 21 22 23 23 21 21 21 19 17 18 20 19 16 14 13 13 13 15 18 18 13 11 12 12 12 12 11 12 13 14 15 15 15 15 15 16 16
17 16 16 15 13 11 9 8 7 7 7 7 5 4 2 3 4 5 5 4 5 7 8 8 12 15 15 17 19 19 19 16 15 20 21 21 24 24 21 19 20 22 21 21 21 19 18 19 21 23 24 21 20 22 23 21 21 21 19 17 17 19 19 16 14 13 13 15 16 18 19 16 12 13 14 12 11 11 12 12 13 14 15 15 14 15 15 16
16 15 14 13 12 11 9 7 7 7 6 5 3 0 2 4 3 3 3 3 4 6 7 8 11 14 16 18 17 18 20 16 15 19 19 20 24 24 22 20 21 21 20 20 21 19 19 21 21 22 24 23 20 22 22 21 22 21 19 19 17 16 18 18 16 15 15 16 17 19 18 16 14 14 14 12 11 12 12 12 12 13 14 15 14 15 15 15
15 14 12 11 11 11 9 7 7 6 4 3 1 2 2 3 3 3 3 4 5 5 6 9 10 13 16 16 16 17 18 16 17 18 17 19 22 22 21 20 19 21 20 20 21 20 20 21 21 21 23 23 20 21 21 21 22 21 19 21 18 16 16 17 17 17 16 16 17 19 17 13 12 13 13 13 13 13 11 10 12 13 14 14 14 15 14 14
14 13 11 10 9 9 8 7 6 5 3 2 2 2 2 2 2 4 3 2 3 4 6 9 10 12 16 15 15 16 16 15 16 17 17 18 20 21 21 20 19 19 18 19 21 20 18 19 20 22 23 23 22 21 20 21 24 23 21 22 21 16 15 16 16 16 16 17 18 19 16 13 12 13 13 14 14 13 11 11 10 11 12 12 13 14 14 14
13 11 10 9 8 8 7 6 5 4 2 2 2 1 2 2 2 4 3 0 2 4 5 8 9 12 15 14 13 13 14 14 15 17 17 17 19 19 20 20 20 17 15 18 20 21 19 18 21 23 21 23 26 21 16 18 24 25 22 22 22 19 15 14 15 15 15 16 17 17 16 15 15 14 14 14 13 12 11 10 9 10 10 11 12 12 13 14
12 9 9 8 7 7 6 4 4 2 1 1 2 3 1 2 0 2 2 1 3 4 5 8 10 13 14 13 12 13 12 12 14 16 17 16 17 17 18 20 19 16 13 15 17 20 21 19 20 22 19 22 28 23 15 16 21 23 23 22 22 20 17 14 15 16 16 15 15 15 13 14 15 15 14 14 13 12 12 11 10 10 10 11 11 10 12 13
10 7 8 8 7 6 5 4 3 2 1 1 1 1 1 3 1 1 1 1 1 3 5 8 10 12 12 12 12 13 12 10 12 15 15 14 14 13 15 17 18 15 13 13 15 17 19 17 19 21 18 22 28 25 20 18 17 19 24 25 22 20 18 15 15 17 17 16 14 14 13 14 16 16 15 14 13 12 12 11 11 10 10 11 11 11 11 13
8 7 7 7 6 6 4 3 3 1 1 2 2 3 3 3 2 2 2 2 2 2 5 8 9 10 11 11 11 13 12 11 14 15 13 14 13 11 12 14 16 16 14 13 14 15 14 15 19 20 18 20 25 24 23 22 19 17 20 22 22 21 20 16 13 15 18 17 15 16 18 18 17 16 16 15 13 12 11 11 11 10 10 10 12 11 10 11
8 7 6 5 6 7 4 2 2 2 3 3 3 4 3 2 2 2 3 2 1 2 5 7 7 7 9 10 10 13 13 12 14 15 13 14 14 13 13 13 14 17 15 13 14 13 12 14 18 20 19 20 22 22 23 25 24 20 16 18 20 19 20 20 16 14 17 17 15 17 19 19 18 17 17 17 15 13 11 10 10 10 9 9 11 11 9 9
7 7 5 4 6 6 3 1 2 3 3 3 3 3 2 2 1 1 3 2 2 3 3 5 7 7 8 8 9 13 14 12 13 13 12 12 12 13 14 14 14 15 14 14 14 14 12 13 15 17 18 19 21 23 24 24 25 22 18 20 22 18 17 21 21 15 15 16 15 17 16 14 15 17 18 17 16 14 11 10 10 9 9 8 9 10 10 9
7 6 3 3 6 5 2 1 3 4 3 3 3 2 1 1 1 1 3 3 3 3 2 3 6 6 6 7 8 11 11 11 12 10 9 10 10 11 14 15 15 14 13 15 15 13 13 13 13 15 17 18 20 23 23 23 23 22 19 20 22 19 14 18 22 19 15 14 15 16 14 12 13 16 17 16 15 14 11 10 10 9 9 8 8 9 10 11
6 4 2 4 5 4 2 3 4 4 3 2 2 2 1 1 1 1 3 3 4 4 2 3 5 5 4 6 8 10 9 9 10 9 8 8 8 10 12 14 16 15 14 15 15 12 12 12 11 13 16 17 18 20 20 20 20 20 20 20 20 20 16 16 20 21 18 13 11 14 15 13 14 15 16 16 14 13 11 10 10 9 8 9 9 8 9 11
5 4 3 4 3 2 3 4 3 3 2 2 2 2 1 1 2 1 2 3 3 4 4 5 5 3 3 4 6 9 8 6 6 7 7 6 6 8 11 12 14 15 15 15 13 12 12 12 10 10 13 14 15 18 18 19 19 19 20 20 19 19 19 17 17 19 19 12 9 12 14 14 16 16 16 16 14 13 11 10 10 9 8 9 9 9 9 10
4 3 3 3 2 2 4 3 2 3 2 2 2 1 1 1 0 1 2 3 3 3 4 5 5 4 3 4 6 8 7 5 5 5 6 7 6 6 9 11 10 13 15 15 13 13 14 14 11 9 11 12 13 17 19 19 20 21 21 19 18 17 16 16 15 15 18 15 11 11 14 17 18 17 16 16 14 13 11 10 10 9 8 9 9 9 9 8
4 3 2 2 2 3 4 3 2 2 3 2 2 1 1 1 1 1 1 2 2 2 3 3 5 5 5 5 5 5 7 7 7 5 5 6 7 7 9 10 10 11 14 15 14 14 15 15 13 12 13 14 14 16 19 21 21 21 23 20 17 15 13 14 14 15 18 17 12 11 14 18 19 18 17 16 15 14 13 12 11 10 9 9 9 10 9 8
4 3 1 2 2 2 3 3 2 2 2 2 2 2 1 0 0 1 1 2 2 2 3 3 4 4 5 6 5 5 7 8 7 7 6 6 7 8 8 9 10 10 12 14 14 14 14 14 14 14 13 12 13 13 16 21 21 21 22 21 19 18 16 14 15 15 17 16 12 12 16 17 18 18 18 17 16 15 13 13 12 11 10 10 10 10 9 9
3 2 1 1 2 2 2 3 3 3 2 1 2 2 2 2 1 1 2 3 3 4 4 4 4 4 5 6 7 6 7 7 7 8 8 7 7 8 8 9 10 10 11 13 14 14 14 14 14 15 12 10 10 10 12 16 19 22 24 21 21 21 18 16 16 14 15 15 13 15 19 19 18 18 18 17 16 15 14 13 12 11 11 11 11 10 10 10
3 2 1 0 1 2 2 3 3 3 2 2 2 2 2 2 2 1 1 2 3 5 5 5 6 5 5 6 7 7 6 6 7 7 7 7 7 8 9 9 9 10 11 13 14 14 15 14 14 16 16 12 10 11 11 12 15 21 23 21 22 22 19 19 19 16 14 15 16 17 19 20 19 18 18 17 17 16 15 13 12 11 11 11 11 11 10 10
3 2 1 1 1 1 1 3 4 3 2 2 2 1 2 2 2 3 2 1 2 4 4 5 6 6 4 5 6 7 7 7 7 7 6 7 8 8 9 9 9 10 11 12 13 14 16 15 14 16 18 16 13 12 13 12 11 14 17 17 19 22 22 22 21 17 15 15 18 19 19 18 19 19 18 17 16 15 14 13 12 11 11 11 11 10 10 10
3 1 1 2 1 1 1 1 2 3 3 3 2 2 2 2 2 3 2 2 1 2 3 3 5 5 5 5 5 6 7 7 7 8 7 7 7 8 9 8 9 10 11 11 11 13 16 15 14 15 17 17 16 15 14 14 12 12 14 15 16 18 20 22 21 18 16 16 19 22 20 18 19 20 19 18 16 15 14 13 14 13 12 12 11 11 10 10
2 1 2 2 1 0 1 1 0 1 2 2 1 2 3 2 3 3 3 4 1 2 2 2 3 4 5 7 6 5 6 6 7 8 8 8 8 8 9 8 8 9 10 11 11 12 15 14 14 15 16 17 19 18 17 16 16 16 17 17 17 17 18 19 20 18 17 17 19 21 21 20 19 19 19 18 17 16 15 14 14 14 13 13 12 11 11 11
3 3 3 3 2 1 2 1 1 1 1 1 1 2 2 2 3 3 4 5 4 2 1 2 3 3 4 5 5 4 4 5 6 6 7 8 8 9 9 8 9 10 10 12 12 13 14 15 15 16 17 17 19 20 20 19 18 20 21 20 19 19 19 19 19 19 19 19 20 21 21 21 21 20 19 18 18 17 17 16 15 14 15 15 13 13 12 12
3 3 3 3 3 2 3 2 1 1 1 1 1 1 2 2 2 1 2 3 3 3 2 0 2 4 4 4 4 4 4 5 5 5 7 8 8 9 10 9 9 10 10 11 12 13 15 15 14 15 17 17 18 19 19 19 19 20 23 23 22 21 20 20 20 20 19 20 21 22 21 21 22 22 20 19 19 19 19 19 17 16 16 16 15 15 15 14
Wind_Direction
314 312 310 309 306 303 301 299 297 296 295 294 292 290 287 283 280 277 274 272 271 268 265 261 260 259 255 252 250 248 248 245 240 233 229 227 222 221 218 211 209 209 207 206 206 207 207 208 209 211 212 211 214 219 219 210 202 238 321 164 174 159 167 167 159 161 153 149 152 155 159 150 141 143 143 142 138 134 131 128 131 133 134 137 138 139 141 141
314 312 310 307 305 303 300 297 295 293 291 290 289 287 285 283 280 277 273 271 269 267 265 262 259 258 256 253 250 248 246 244 241 237 232 226 222 220 216 211 209 207 205 205 206 207 207 207 206 208 213 214 216 217 212 198 186 231 288 154 175 169 163 163 160 158 154 152 153 156 160 152 144 144 148 146 139 137 133 130 133 133 135 138 140 141 142 143
314 312 310 308 305 302 300 297 294 291 289 287 286 284 282 281 279 276 273 270 268 265 264 261 259 257 255 253 251 248 244 244 241 237 233 224 218 217 215 213 210 206 205 205 206 207 208 207 206 208 213 215 216 218 212 196 189 174 120 124 164 172 157 156 161 153 150 152 153 155 155 153 150 147 149 147 140 139 138 137 138 137 141 143 143 144 145 145
315 313 311 309 306 303 300 298 295 292 289 286 284 282 280 278 276 275 273 270 267 264 261 259 258 256 253 252 250 247 244 243 236 227 225 218 213 215 214 213 211 208 206 206 207 208 209 210 209 211 214 217 216 215 215 210 203 177 157 123 147 165 153 156 166 157 153 154 155 154 152 154 153 149 149 148 143 140 139 140 142 143 145 145 145 146 147 147
314 313 311 309 307 305 302 299 296 293 290 286 283 280 278 276 273 272 271 270 267 264 260 257 256 254 252 250 247 245 241 235 225 218 218 215 213 214 214 212 210 208 205 207 210 208 208 212 213 214 216 221 219 211 218 218 209 203 199 171 156 164 149 158 169 163 159 157 157 156 152 154 153 150 147 145 144 141 140 141 143 145 146 146 147 147 148 148
313 312 311 310 308 306 303 301 297 294 291 287 284 280 277 274 271 269 268 267 265 262 259 256 254 252 251 248 244 242 234 228 225 221 220 219 217 215 214 211 208 207 205 208 213 209 207 212 214 215 215 221 223 216 217 212 204 206 210 201 184 181 165 160 166 166 166 163 163 159 155 157 155 151 145 146 153 145 142 144 145 145 146 147 147 148 150 151
312 311 310 309 308 306 305 302 299 296 292 289 285 281 277 274 270 268 265 263 261 259 256 254 253 250 249 246 242 238 233 234 234 224 220 222 219 215 213 209 206 204 205 210 213 208 207 212 214 215 216 222 225 216 211 209 204 205 216 212 190 185 175 162 163 168 172 169 165 158 155 158 155 151 149 154 160 149 146 146 145 146 147 148 150 151 152 154
312 311 309 308 307 305 304 302 300 297 294 290 287 282 278 275 270 267 263 261 258 256 253 251 250 248 246 243 240 237 235 234 228 221 223 223 217 214 210 206 205 203 206 211 211 208 208 212 214 214 215 220 226 216 209 211 208 206 217 218 193 184 171 160 159 167 174 175 169 159 156 161 159 154 154 156 152 149 150 148 147 148 148 150 152 153 154 155
313 311 310 308 306 305 303 302 300 297 295 292 288 284 279 275 270 266 262 260 256 253 250 248 247 246 244 240 239 239 234 227 222 223 225 222 217 211 207 205 204 203 207 212 210 209 210 212 214 214 217 225 235 226 211 213 210 203 207 215 213 179 159 161 161 167 174 175 169 160 159 166 168 160 156 159 151 148 151 149 150 151 150 152 153 155 156 156
313 312 310 308 306 305 303 301 299 297 295 292 289 285 281 276 271 266 262 259 255 251 248 245 243 241 240 237 236 236 231 225 225 225 222 220 214 208 206 205 203 204 208 212 211 209 210 212 212 215 223 230 236 225 207 212 213 203 207 216 218 183 165 171 167 168 175 178 172 162 159 164 171 167 162 169 160 150 152 152 153 153 153 153 154 155 156 157
315 313 310 308 306 305 303 301 299 297 295 292 290 287 282 276 271 266 262 257 253 249 244 241 239 237 237 236 233 233 230 227 225 221 219 217 211 206 206 205 204 206 210 211 210 209 210 213 214 216 221 221 226 224 212 213 210 203 211 218 211 196 176 165 160 162 170 185 179 166 159 162 170 170 165 172 164 154 154 154 154 156 155 154 155 156 157 158
315 313 311 309 307 305 303 301 299 297 295 292 290 288 282 276 271 266 261 256 251 245 240 238 235 234 236 235 232 233 234 229 224 219 216 214 210 207 207 206 206 208 212 212 210 211 212 215 218 218 218 218 222 227 219 210 206 207 211 213 206 194 166 147 156 162 164 180 177 168 164 165 170 170 166 170 164 156 156 156 157 157 156 156 156 158 158 159
316 314 313 311 308 306 303 301 299 296 294 292 290 287 282 277 271 265 259 253 247 241 237 234 232 232 234 234 231 230 232 228 223 220 215 213 211 209 209 209 208 211 214 213 213 213 214 217 220 221 224 224 222 226 222 211 210 215 210 209 208 194 174 163 167 170 175 185 179 174 173 171 172 171 170 172 166 158 158 159 159 160 158 157 159 160 160 161
317 315 314 313 310 307 304 301 298 296 294 292 290 286 282 277 269 263 256 249 243 237 233 230 230 230 230 234 232 226 228 225 222 221 215 213 211 209 211 210 210 213 214 215 218 216 215 219 221 222 225 223 224 231 230 218 214 216 211 209 211 202 193 185 178 175 181 190 186 181 180 177 175 173 173 177 171 161 160 161 160 161 161 159 161 163 162 163
317 316 316 314 313 310 306 302 298 295 293 291 289 285 281 275 266 258 252 246 240 234 230 228 229 228 229 234 233 226 227 226 222 220 216 213 211 210 211 211 211 213 213 214 218 218 216 219 219 219 221 221 225 230 225 218 215 215 213 209 209 205 194 183 182 184 180 185 187 187 187 185 182 175 172 180 177 165 163 164 162 163 163 162 164 165 165 166
318 317 316 315 314 311 308 303 299 294 293 291 287 283 278 271 262 253 248 244 238 232 228 227 226 226 231 232 228 226 226 225 221 218 215 214 213 212 210 209 210 212 215 213 215 219 216 218 217 217 220 219 220 221 217 216 213 212 213 213 210 201 192 185 193 193 179 179 185 190 191 188 187 179 176 183 181 169 168 167 165 165 165 164 167 167 168 168
319 318 316 315 314 312 309 305 299 295 292 290 285 281 274 266 257 250 246 242 238 231 227 231 228 225 231 232 228 227 225 220 217 214 214 214 213 212 208 209 210 211 214 213 214 218 215 215 215 214 217 217 215 214 215 215 211 210 212 215 217 207 199 195 198 193 181 182 184 185 186 185 186 183 181 182 179 174 173 171 169 169 167 168 170 170 170 170
320 318 316 315 313 312 309 305 300 296 293 289 283 277 271 264 256 248 242 239 236 231 231 233 228 228 233 231 227 225 221 216 213 213 213 212 212 212 210 210 210 210 212 214 215 216 214 213 213 213 213 213 213 211 214 214 210 211 209 212 217 209 200 197 197 195 188 186 184 184 187 185 182 184 185 179 176 183 182 176 175 172 170 171 172 172 172 172
321 319 317 315 313 312 310 306 301 297 294 288 280 275 269 260 253 247 243 238 230 228 233 228 220 226 235 226 223 221 216 212 211 212 212 211 212 211 210 211 210 210 212 213 213 214 213 211 211 213 212 211 212 211 214 214 213 215 209 214 222 205 192 192 191 191 187 181 180 184 186 184 182 184 186 178 177 188 189 187 184 177 174 175 174 174 174 174
322 320 319 316 314 313 311 307 301 298 293 285 278 272 265 262 254 246 241 236 230 231 240 229 215 223 235 222 215 212 209 210 212 213 212 211 211 209 208 210 210 210 212 212 212 211 211 213 212 213 212 211 212 213 217 217 218 217 207 214 220 204 192 190 185 187 188 182 179 181 179 183 188 190 186 179 180 187 185 189 194 184 177 177 177 175 175 177
324 322 321 319 317 315 313 309 302 298 290 281 277 268 266 274 263 250 243 235 231 233 238 231 217 224 235 222 208 206 208 211 215 214 212 210 209 207 207 208 210 210 213 213 212 211 212 216 215 213 214 213 214 214 215 219 221 219 211 213 217 210 200 193 191 190 190 190 188 184 181 185 192 193 189 182 183 186 184 189 198 193 183 179 179 176 176 178
325 324 324 323 321 319 316 311 304 299 290 279 274 265 268 279 263 251 251 242 234 231 231 232 225 223 227 220 211 212 215 214 214 212 210 209 207 207 206 208 211 210 211 213 212 211 213 218 216 214 214 214 216 214 215 222 222 218 210 208 215 212 200 191 190 188 191 194 187 182 184 190 193 193 191 188 186 188 191 195 198 198 191 183 180 178 178 180
326 326 327 326 325 323 319 314 307 301 291 277 273 270 274 278 262 251 248 247 241 229 228 231 227 221 218 218 215 215 216 214 212 210 207 208 207 208 207 208 211 211 210 211 212 212 214 217 216 215 214 213 216 216 216 220 220 218 211 207 209 205 202 197 185 186 194 193 181 175 172 185 192 194 194 191 190 190 195 198 197 200 200 189 184 182 181 181
328 328 329 329 328 326 323 319 312 303 289 276 275 277 282 276 264 257 246 248 244 227 228 228 223 222 220 222 222 216 215 214 212 208 206 208 207 208 209 209 210 212 212 211 213 216 217 216 214 214 215 213 215 216 215 215 216 218 212 210 209 205 209 200 181 185 189 185 181 174 166 177 186 190 193 190 189 189 190 191 194 202 205 197 191 188 185 184
330 330 331 331 330 328 325 320 312 302 291 281 280 283 288 276 264 257 244 249 241 223 228 223 217 222 218 219 221 214 214 216 213 209 206 208 207 207 210 211 210 212 212 211 214 217 218 216 211 212 215 213 214 215 213 211 213 214 208 208 209 207 210 194 179 186 186 185 189 184 183 192 190 188 190 188 187 187 186 185 191 200 203 200 198 196 190 187
331 332 332 332 331 329 325 321 317 311 299 288 289 293 290 276 264 250 238 246 233 218 222 213 211 219 216 215 213 210 216 218 213 208 206 208 209 208 211 211 210 213 213 211 214 217 217 215 210 211 213 211 212 215 211 207 211 212 205 205 206 205 210 205 192 198 201 196 198 199 198 194 195 196 192 188 186 187 189 188 190 195 198 199 200 200 196 191
332 333 334 333 332 331 327 325 322 316 313 302 297 299 291 276 262 237 231 241 225 214 213 206 211 219 215 211 204 205 214 209 202 204 206 207 209 211 212 212 209 212 214 210 212 215 214 214 210 211 211 207 209 211 208 206 210 211 205 205 205 203 211 216 208 211 211 196 196 202 195 185 195 198 193 188 186 188 192 194 195 193 193 196 199 200 201 197
333 333 335 335 333 329 327 326 318 312 320 316 301 298 291 269 247 222 229 238 212 209 211 204 212 217 211 204 201 204 204 199 200 204 206 206 208 209 209 213 212 210 212 210 210 212 212 213 210 208 207 205 208 210 209 209 209 211 211 209 206 206 213 217 212 212 209 199 198 198 188 185 195 191 186 186 189 198 199 198 203 198 192 193 196 199 201 200
333 333 335 336 334 329 324 325 320 313 322 322 308 301 284 244 218 206 222 230 203 208 210 206 212 213 207 200 204 211 205 205 209 204 203 206 207 207 209 217 216 212 211 208 209 210 209 210 207 207 209 207 209 210 212 213 209 210 214 212 208 208 214 217 215 214 214 214 206 197 192 196 203 194 187 186 191 203 207 203 205 203 198 195 194 197 199 200
332 333 335 336 337 335 324 319 318 317 327 330 317 303 251 194 197 205 209 210 203 202 202 210 211 206 203 199 204 211 207 207 207 200 202 208 207 209 214 217 214 213 212 208 209 210 208 206 204 209 212 210 209 209 212 213 209 207 210 213 208 205 209 214 216 215 218 221 214 208 203 197 203 204 197 197 198 199 204 203 203 201 198 197 197 197 197 200
332 334 337 338 342 344 334 328 332 330 335 338 330 274 170 171 188 210 206 198 190 193 203 209 202 198 200 198 199 205 204 203 204 202 205 206 204 206 209 209 208 212 212 208 209 210 211 210 209 211 210 211 214 210 209 210 207 205 205 207 201 197 206 210 212 215 218 217 215 218 212 197 206 212 202 201 199 200 206 203 200 198 195 197 199 199 197 199
332 334 336 338 343 348 344 343 349 349 350 1 60 118 141 168 184 189 199 212 199 203 216 201 187 191 197 198 196 199 202 203 205 206 204 202 201 200 203 204 202 207 208 204 204 206 211 212 211 213 207 208 215 208 205 207 207 207 204 202 200 197 204 209 211 217 219 218 216 219 215 204 207 206 198 197 193 197 203 198 198 196 194 198 199 200 198 196
331 333 337 340 344 349 349 349 358 8 22 51 103 107 109 141 198 192 172 192 187 189 206 194 184 191 194 194 193 195 200 200 198 200 198 198 198 199 204 205 200 204 206 206 205 204 207 206 208 214 206 205 211 205 203 208 207 209 205 201 202 200 201 207 212 216 218 220 217 215 213 205 201 199 197 198 194 193 192 189 193 188 189 197 197 200 200 198
330 332 338 343 344 348 349 353 4 20 61 100 84 56 139 157 207 193 171 174 190 186 199 192 185 191 193 193 192 194 199 196 194 197 194 191 194 198 202 204 204 207 205 207 209 204 208 209 208 212 207 203 208 206 207 209 207 209 208 202 204 205 205 208 212 213 215 217 212 209 210 205 201 201 197 194 196 199 198 194 187 181 185 193 196 201 202 202
329 334 342 345 345 347 351 0 9 24 103 127 58 53 181 212 149 169 184 204 192 196 202 193 187 190 192 190 191 193 195 193 194 199 195 190 196 200 200 200 203 206 203 205 208 205 213 220 207 206 212 207 205 208 213 210 206 207 206 205 207 209 213 217 217 216 215 215 209 204 205 199 195 199 197 194 197 200 200 197 190 185 187 190 194 198 199 203
329 335 344 344 347 356 3 17 24 36 105 283 353 36 250 248 307 341 207 188 212 213 203 195 191 191 187 184 189 191 193 199 195 191 189 189 193 195 195 196 196 200 201 204 207 207 213 213 195 197 212 209 205 212 215 210 208 205 206 212 214 213 218 223 223 221 218 217 208 194 191 190 192 199 199 195 195 195 194 194 192 190 190 192 195 196 196 202
329 330 338 346 357 4 5 25 34 14 319 310 297 304 290 259 279 284 221 230 284 240 193 187 186 188 184 182 193 194 193 202 196 189 189 189 189 189 187 188 193 199 204 206 211 213 209 200 194 200 210 206 205 214 216 211 211 207 206 215 216 215 221 223 221 220 216 215 207 189 187 193 199 203 201 194 191 192 192 190 189 190 191 195 198 200 201 203
335 331 332 347 4 4 0 28 19 343 333 329 291 288 309 308 286 259 226 239 251 180 181 185 188 194 189 190 200 197 193 196 193 192 196 194 197 205 202 196 198 202 208 211 210 214 209 198 199 207 212 207 206 213 215 213 216 218 219 218 212 213 218 215 214 217 212 213 209 189 187 197 204 203 199 196 195 193 192 193 194 192 195 202 204 208 212 210
336 335 333 347 359 355 356 22 345 332 338 335 301 283 312 345 328 234 213 216 171 150 160 183 192 198 204 212 207 194 193 194 192 193 195 195 200 210 210 207 204 202 208 211 207 209 211 200 198 205 208 206 207 211 213 212 215 221 224 216 210 215 219 212 213 218 215 215 209 192 190 201 204 199 196 195 197 197 196 199 202 199 202 210 212 214 219 218
327 330 334 347 352 356 10 354 325 319 318 317 307 305 331 348 347 196 200 210 184 168 139 169 186 189 203 213 200 191 193 192 194 194 187 192 201 206 208 208 206 205 207 207 205 208 211 205 203 202 202 207 208 208 209 209 210 213 215 211 208 212 219 214 213 214 217 223 212 196 196 200 197 197 196 193 195 198 198 200 204 206 209 212 211 215 220 216
332 336 349 344 352 15 18 341 331 329 327 328 331 344 349 318 323 180 191 202 195 195 182 165 183 184 189 194 186 189 193 187 193 195 182 192 206 205 207 206 206 208 206 203 205 209 207 207 209 202 203 210 206 201 204 206 207 210 210 210 208 209 214 215 210 209 217 228 209 191 195 198 196 197 198 195 194 194 192 194 201 205 208 210 208 209 216 216
335 350 355 346 3 28 350 342 350 348 347 353 358 13 1 274 283 258 197 194 201 207 193 182 189 182 175 185 183 188 191 181 182 181 173 180 190 195 202 205 209 210 208 209 213 211 205 206 214 209 202 202 196 196 203 207 210 214 211 208 207 208 213 216 213 212 215 208 175 179 195 198 198 200 198 198 196 194 192 194 202 206 207 210 207 203 208 216
326 346 4 11 34 10 347 353 5 5 15 9 1 22 23 4 275 224 197 197 211 211 195 190 195 194 188 180 177 185 188 178 167 168 175 181 186 196 199 202 210 208 207 211 213 210 210 210 215 212 200 197 199 206 212 213 214 216 211 208 208 208 213 220 222 220 217 207 187 195 205 201 201 202 199 198 197 199 202 203 206 209 207 207 205 203 206 212
326 341 16 25 7 343 349 360 1 14 28 15 11 53 20 21 52 66 154 181 212 204 192 182 184 197 202 186 176 180 182 185 190 191 189 188 194 204 202 203 209 203 200 207 211 212 214 214 215 215 207 205 208 212 214 213 213 213 210 210 213 214 219 224 220 216 219 219 215 211 206 200 201 203 202 202 202 204 208 210 211 212 209 206 204 202 204 208
319 313 321 358 351 337 358 12 22 37 39 30 44 67 71 91 239 279 256 228 231 223 215 199 190 198 199 198 202 187 180 191 201 199 192 188 193 200 202 205 209 204 201 210 217 215 213 216 217 215 214 210 210 216 214 209 210 213 213 215 218 220 224 224 219 216 218 222 219 205 198 197 201 203 202 204 205 204 205 207 210 213 214 213 211 208 205 207
312 311 288 355 12 27 33 25 26 32 33 38 47 46 40 49 114 249 264 243 229 231 229 222 222 214 202 211 214 196 192 200 199 197 197 193 195 201 204 206 207 213 218 220 220 215 213 218 213 209 215 214 211 219 214 206 211 215 217 220 220 222 224 221 218 215 215 219 213 197 193 195 199 200 200 202 203 204 205 206 207 210 212 213 213 210 207 206
296 312 298 305 3 37 55 28 22 34 29 18 28 31 28 37 62 102 273 255 234 232 234 234 236 230 216 218 214 203 204 202 192 193 191 190 198 204 207 209 207 217 227 224 219 214 213 217 211 208 216 218 214 218 215 216 221 215 214 218 219 221 225 221 217 218 222 222 214 200 196 197 199 198 198 200 202 205 208 208 209 210 211 211 210 208 207 207
297 299 269 247 304 355 38 23 25 46 48 27 20 13 19 33 42 47 39 311 237 230 236 230 226 229 221 214 211 205 209 207 197 197 197 201 207 203 205 212 212 218 224 220 218 216 214 219 220 215 216 219 221 223 220 224 225 205 202 211 216 220 225 224 223 227 231 224 211 204 202 199 199 200 198 198 201 205 208 208 208 210 211 211 212 212 212 211
304 267 230 243 272 318 17 22 26 49 50 38 34 34 33 43 43 28 6 347 260 231 251 226 210 224 226 220 218 210 210 216 211 209 216 219 213 208 211 214 213 218 222 220 219 216 214 220 224 219 219 220 222 224 222 222 220 206 206 215 217 221 224 223 225 230 229 219 209 206 205 201 202 203 200 199 202 205 209 213 212 210 210 212 215 218 220 219
285 250 247 252 255 279 249 248 273 63 60 43 43 49 40 45 57 46 18 9 21 210 233 210 194 216 219 212 213 207 208 223 221 216 223 227 225 224 222 216 216 222 225 224 222 217 214 220 224 223 226 227 223 223 224 225 225 224 225 225 223 225 225 222 224 227 224 216 207 204 206 207 206 204 202 206 209 210 212 215 213 213 215 215 217 220 223 225
268 250 240 252 263 254 249 253 250 232 107 88 64 52 53 64 64 54 38 31 36 58 176 195 190 200 196 188 194 201 211 224 223 219 222 226 230 228 223 225 230 233 231 227 224 221 219 222 224 223 228 231 225 222 226 229 230 231 232 230 225 224 225 224 223 224 223 218 211 207 209 211 208 204 205 210 214 215 215 214 216 222 224 221 221 224 225 225
287 264 238 252 262 238 232 237 233 235 207 93 61 35 56 80 67 18 28 44 47 48 47 175 204 207 198 184 193 213 222 224 227 230 228 228 232 230 228 233 235 234 234 228 225 226 224 224 224 221 226 230 223 220 226 229 231 234 235 232 227 224 225 226 224 223 224 224 219 214 212 211 208 209 214 218 218 219 221 220 221 227 229 226 225 226 227 227